DW1035 Weather Reports


time (UTC)temp
C
wind
direction
speed
KPH
gust
KPH
rain 1hr
cm
rain 24hr
cm
rain mn
cm
humidity
%
barometer
mb
20260505014505 12 0 0.0 0.0 0.00 0.00 0.00 69 1004.6
20260505014004 12 0 0.0 0.0 0.00 0.00 0.00 69 1004.6
20260505013504 13 0 0.0 0.0 0.00 0.00 0.00 68 1004.6
20260505013006 13 0 0.0 0.0 0.00 0.00 0.00 66 1004.6
20260505011504 15 0 0.0 0.0 0.00 0.00 0.00 60 1004.4
20260505011004 15 0 0.0 0.0 0.00 0.00 0.00 57 1004.3
20260505010504 15 0 0.0 0.0 0.00 0.00 0.00 53 1004.2
20260505010004 16 0 0.0 0.0 0.00 0.00 0.00 50 1004.1
20260505004504 16 0 0.0 0.0 0.00 0.00 0.00 48 1003.9
20260505004004 16 0 0.0 0.0 0.00 0.00 0.00 47 1003.8
20260505003504 16 0 0.0 0.0 0.00 0.00 0.00 47 1003.8
20260505003004 17 0 0.0 0.0 0.00 0.00 0.00 46 1003.7
20260505001504 17 0 0.0 0.0 0.00 0.00 0.00 45 1003.4
20260505001004 18 0 0.0 0.0 0.00 0.00 0.00 44 1003.2
20260505000504 18 0 0.0 0.0 0.00 0.00 0.00 43 1003.1
20260505000004 18 0 0.0 0.0 0.00 0.00 0.00 42 1003.1
20260504234504 19 0 0.0 0.0 0.00 0.00 0.00 40 1002.9
20260504234004 19 0 0.0 0.0 0.00 0.00 0.00 40 1002.9
20260504233504 20 0 0.0 0.0 0.00 0.00 0.00 39 1002.9
20260504233004 20 0 0.0 0.0 0.00 0.00 0.00 39 1002.8
20260504231504 20 0 0.0 0.0 0.00 0.00 0.00 37 1002.5
20260504231004 21 0 0.0 0.0 0.00 0.00 0.00 37 1002.4
20260504230504 21 0 0.0 0.0 0.00 0.00 0.00 37 1002.4
20260504230004 21 0 0.0 0.0 0.00 0.00 0.00 36 1002.4
20260504224504 21 0 0.0 0.0 0.00 0.00 0.00 36 1002.2
20260504224004 21 0 0.0 0.0 0.00 0.00 0.00 36 1002.2
20260504221504 21 0 0.0 0.0 0.00 0.00 0.00 36 1002.0
20260504221004 21 0 0.0 0.0 0.00 0.00 0.00 36 1002.0
20260504214510 21 0 0.0 0.0 0.00 0.00 0.00 36 1002.1
20260504214010 21 0 0.0 0.0 0.00 0.00 0.00 37 1002.1
20260504213510 21 0 0.0 0.0 0.00 0.00 0.00 37 1002.1
20260504213010 21 0 0.0 0.0 0.00 0.00 0.00 37 1002.0
20260504211510 22 0 0.0 0.0 0.00 0.00 0.00 37 1002.1
20260504211010 21 0 0.0 0.0 0.00 0.00 0.00 36 1002.0
20260504210510 21 0 0.0 0.0 0.00 0.00 0.00 36 1002.0
20260504210010 21 0 0.0 0.0 0.00 0.00 0.00 36 1002.0
20260504203509 22 0 0.0 0.0 0.00 0.00 0.00 35 1002.0
20260504203009 22 0 0.0 0.0 0.00 0.00 0.00 35 1002.1
20260504201509 22 0 0.0 0.0 0.00 0.00 0.00 35 1001.8
20260504201009 22 0 0.0 0.0 0.00 0.00 0.00 34 1001.9
20260504200509 22 0 0.0 0.0 0.00 0.00 0.00 34 1001.9
20260504194509 22 0 0.0 0.0 0.00 0.00 0.00 35 1002.0
20260504194010 22 0 0.0 0.0 0.00 0.00 0.00 35 1002.0
20260504193509 21 0 0.0 0.0 0.00 0.00 0.00 35 1002.0
20260504193009 21 0 0.0 0.0 0.00 0.00 0.00 35 1002.1
20260504191509 20 0 0.0 0.0 0.00 0.00 0.00 36 1002.3
20260504191009 20 0 0.0 0.0 0.00 0.00 0.00 36 1002.5
20260504190509 20 0 0.0 0.0 0.00 0.00 0.00 36 1002.4
20260504190009 20 0 0.0 0.0 0.00 0.00 0.00 37 1002.3
20260504184509 20 0 0.0 0.0 0.00 0.00 0.00 37 1002.4
20260504183509 20 0 0.0 0.0 0.00 0.00 0.00 36 1002.3
20260504183008 20 0 0.0 0.0 0.00 0.00 0.00 36 1002.4
20260504181008 21 0 0.0 0.0 0.00 0.00 0.00 35 1002.2
20260504180508 21 0 0.0 0.0 0.00 0.00 0.00 35 1002.2
20260504180009 21 0 0.0 0.0 0.00 0.00 0.00 35 1002.3
20260504174509 21 0 0.0 0.0 0.00 0.00 0.00 33 1002.3
20260504174008 20 0 0.0 0.0 0.00 0.00 0.00 35 1002.3
20260504173508 21 0 0.0 0.0 0.00 0.00 0.00 34 1002.5
20260504173009 22 0 0.0 0.0 0.00 0.00 0.00 34 1002.5
20260504171508 22 0 0.0 0.0 0.00 0.00 0.00 33 1002.4
20260504171009 22 0 0.0 0.0 0.00 0.00 0.00 32 1002.5
20260504170508 21 0 0.0 0.0 0.00 0.00 0.00 35 1002.6
20260504151008 18 0 0.0 0.0 0.00 0.00 0.00 43 1003.7
20260504150507 18 0 0.0 0.0 0.00 0.00 0.00 41 1003.8
20260504141008 16 0 0.0 0.0 0.00 0.00 0.00 45 1004.7
20260504140507 16 0 0.0 0.0 0.00 0.00 0.00 47 1004.8
20260504130507 13 0 0.0 0.0 0.00 0.00 0.00 51 1005.4
20260504110507 7 0 0.0 0.0 0.00 0.00 0.00 64 1006.1
20260504100507 3 0 0.0 0.0 0.00 0.00 0.00 75 1006.0
20260504081506 5 0 0.0 0.0 0.00 0.00 0.00 69 1006.0
20260504050505 3 0 0.0 0.0 0.00 0.00 0.00 76 1005.8
20260504044505 3 0 0.0 0.0 0.00 0.00 0.00 76 1005.8
20260504044005 3 0 0.0 0.0 0.00 0.00 0.00 76 1005.8
20260504043005 3 0 0.0 0.0 0.00 0.00 0.00 74 1005.7
20260504041005 2 0 0.0 0.0 0.00 0.00 0.00 76 1005.6
20260504040505 2 0 0.0 0.0 0.00 0.00 0.00 76 1005.6
20260504040006 2 0 0.0 0.0 0.00 0.00 0.00 75 1005.6
20260504034505 3 0 0.0 0.0 0.00 0.00 0.00 76 1005.5
20260504034006 3 0 0.0 0.0 0.00 0.00 0.00 76 1005.5
20260504033505 2 0 0.0 0.0 0.00 0.00 0.00 75 1005.5
20260504033005 2 0 0.0 0.0 0.00 0.00 0.00 76 1005.4
20260504031505 2 0 0.0 0.0 0.00 0.00 0.00 78 1005.3
20260504031005 2 0 0.0 0.0 0.00 0.00 0.00 78 1005.3
20260504030505 2 0 0.0 0.0 0.00 0.00 0.00 79 1005.2
20260504030005 3 0 0.0 0.0 0.00 0.00 0.00 79 1005.2
20260504024504 3 0 0.0 0.0 0.00 0.00 0.00 76 1005.2
20260504024005 3 0 0.0 0.0 0.00 0.00 0.00 74 1005.2
20260504023506 3 0 0.0 0.0 0.00 0.00 0.00 74 1005.3
20260504023005 3 0 0.0 0.0 0.00 0.00 0.00 73 1005.3
20260504021505 4 0 0.0 0.0 0.00 0.00 0.00 71 1005.2
20260504021005 4 0 0.0 0.0 0.00 0.00 0.00 70 1005.2
20260504020504 5 0 0.0 0.0 0.00 0.00 0.00 70 1005.3